Terminal Aerodrome Forecast
Issued by NWS Aberdeen, SD

Home | Current Version | Previous Version | Text Only | Print | Product List | Glossary On
Versions: 1 2 3 4 5 6 7 8 9 10 11 12 13 14 15 16 17 18 19 20 21 22 23 24 25 26 27 28 29 30 31 32 33 34 35 36 37 38 39 40 41 42 43 44 45 46 47 48 49 50
000
FTUS43 KABR 291720
TAFABR
TAF
KABR 291720Z 2918/3018 01019G27KT P6SM OVC014
     FM291900 01020G28KT P6SM OVC025
     FM292000 01019G26KT P6SM OVC050
     FM300300 36008KT P6SM BKN025
     FM300600 01007KT P6SM SKC=

USA.gov is the U.S. government's official web portal to all federal, state and local government web resources and services.